| time (UTC) | temp F | wind direction | speed MPH | gust MPH | rain 1hr in | rain 24hr in | rain mn in | humidity % | barometer mb |
| 20260903191600 | 79 | 320 | 2.0 | 3.0 | 0.00 | 0.00 | 0.00 | 85 | 980.7 |
| 20260903191100 | 79 | 329 | 4.0 | 6.0 | 0.00 | 0.00 | 0.00 | 85 | 980.8 |
| 20260903190600 | 80 | 331 | 3.0 | 5.0 | 0.00 | 0.00 | 0.00 | 84 | 980.7 |
| 20260903190100 | 80 | 72 | 2.0 | 4.0 | 0.00 | 0.00 | 0.00 | 84 | 980.7 |
| 20260903185600 | 80 | 350 | 5.0 | 9.0 | 0.00 | 0.00 | 0.00 | 82 | 980.9 |
| 20260903185059 | 80 | 324 | 3.0 | 4.0 | 0.00 | 0.00 | 0.00 | 82 | 981.0 |
| 20260903184559 | 80 | 350 | 4.0 | 8.0 | 0.00 | 0.00 | 0.00 | 82 | 980.9 |
| 20260903183538 | 80 | 295 | 4.0 | 5.0 | 0.00 | 0.00 | 0.00 | 81 | 981.2 |
| 20260903182516 | 81 | 315 | 3.0 | 5.0 | 0.00 | 0.00 | 0.00 | 80 | 981.6 |
| 20260903182016 | 81 | 316 | 5.0 | 7.0 | 0.00 | 0.00 | 0.00 | 80 | 981.7 |
| 20260903181516 | 81 | 273 | 5.0 | 8.0 | 0.00 | 0.00 | 0.00 | 79 | 981.6 |
| 20260903181016 | 81 | 293 | 4.0 | 6.0 | 0.00 | 0.00 | 0.00 | 79 | 981.6 |
| 20260903180515 | 81 | 290 | 5.0 | 8.0 | 0.00 | 0.00 | 0.00 | 78 | 981.6 |
| 20260903180015 | 81 | 275 | 5.0 | 7.0 | 0.00 | 0.00 | 0.00 | 79 | 981.7 |
| 20260903175515 | 81 | 312 | 3.0 | 5.0 | 0.00 | 0.00 | 0.00 | 78 | 981.7 |
| 20260903175015 | 81 | 305 | 6.0 | 9.0 | 0.00 | 0.00 | 0.00 | 78 | 981.7 |
| 20260903174515 | 81 | 306 | 5.0 | 9.0 | 0.00 | 0.00 | 0.00 | 78 | 981.7 |
| 20260903173453 | 80 | 321 | 5.0 | 8.0 | 0.00 | 0.00 | 0.00 | 78 | 981.9 |
| 20260903172432 | 81 | 302 | 7.0 | 10.0 | 0.00 | 0.00 | 0.00 | 78 | 981.9 |
| 20260903171932 | 80 | 308 | 5.0 | 7.0 | 0.00 | 0.00 | 0.00 | 78 | 981.9 |
| 20260903171431 | 80 | 296 | 5.0 | 6.0 | 0.00 | 0.00 | 0.00 | 77 | 981.9 |
| 20260903170930 | 80 | 290 | 6.0 | 8.0 | 0.00 | 0.00 | 0.00 | 77 | 981.8 |
| 20260903170430 | 80 | 284 | 4.0 | 5.0 | 0.00 | 0.00 | 0.00 | 77 | 981.6 |
| 20260903165930 | 80 | 329 | 4.0 | 6.0 | 0.00 | 0.00 | 0.00 | 77 | 981.8 |
| 20260903165429 | 80 | 308 | 7.0 | 12.0 | 0.00 | 0.00 | 0.00 | 78 | 981.8 |
| 20260903164928 | 80 | 262 | 4.0 | 6.0 | 0.00 | 0.00 | 0.00 | 80 | 982.0 |
| 20260903164428 | 79 | 275 | 4.0 | 6.0 | 0.00 | 0.00 | 0.00 | 81 | 982.2 |
| 20260903163928 | 79 | 295 | 4.0 | 6.0 | 0.00 | 0.00 | 0.00 | 82 | 982.1 |
| 20260903162345 | 79 | 294 | 5.0 | 9.0 | 0.00 | 0.00 | 0.00 | 78 | 982.1 |
| 20260903161845 | 79 | 282 | 3.0 | 4.0 | 0.00 | 0.00 | 0.00 | 79 | 982.2 |
| 20260903161344 | 79 | 267 | 5.0 | 6.0 | 0.00 | 0.00 | 0.00 | 80 | 982.2 |
| 20260903160844 | 80 | 275 | 5.0 | 8.0 | 0.00 | 0.00 | 0.00 | 79 | 982.2 |
| 20260903160343 | 80 | 287 | 5.0 | 6.0 | 0.00 | 0.00 | 0.00 | 78 | 982.2 |
| 20260903155843 | 80 | 271 | 2.0 | 3.0 | 0.00 | 0.00 | 0.00 | 77 | 982.0 |
| 20260903155343 | 80 | 70 | 3.0 | 5.0 | 0.00 | 0.00 | 0.00 | 78 | 981.9 |
| 20260903154322 | 80 | 348 | 2.0 | 4.0 | 0.00 | 0.00 | 0.00 | 79 | 982.0 |
| 20260903153300 | 80 | 206 | 1.0 | 2.0 | 0.00 | 0.00 | 0.00 | 79 | 982.0 |
| 20260903151717 | 78 | 192 | 3.0 | 7.0 | 0.00 | 0.00 | 0.00 | 85 | 982.0 |
| 20260903151217 | 78 | 264 | 1.0 | 2.0 | 0.00 | 0.00 | 0.00 | 84 | 982.1 |
| 20260903150717 | 77 | 165 | 3.0 | 6.0 | 0.00 | 0.00 | 0.00 | 86 | 982.2 |
| 20260903145655 | 76 | 100 | 1.0 | 2.0 | 0.00 | 0.00 | 0.00 | 88 | 982.2 |
| 20260903145155 | 75 | 247 | 1.0 | 3.0 | 0.00 | 0.00 | 0.00 | 88 | 982.3 |
| 20260903144654 | 75 | 241 | 2.0 | 3.0 | 0.00 | 0.00 | 0.00 | 90 | 982.3 |
| 20260903143633 | 75 | 163 | 1.0 | 2.0 | 0.00 | 0.00 | 0.00 | 92 | 982.2 |
| 20260903143132 | 74 | 236 | 1.0 | 2.0 | 0.00 | 0.00 | 0.00 | 93 | 982.2 |
| 20260903142110 | 72 | 284 | 1.0 | 1.0 | 0.00 | 0.00 | 0.00 | 97 | 982.2 |
| 20260903141610 | 71 | 163 | 1.0 | 3.0 | 0.00 | 0.00 | 0.00 | 97 | 982.2 |
| 20260903141110 | 70 | 221 | 1.0 | 2.0 | 0.00 | 0.00 | 0.00 | 97 | 982.3 |
| 20260903140610 | 71 | 215 | 1.0 | 2.0 | 0.00 | 0.00 | 0.00 | 97 | 982.2 |
| 20260903135547 | 69 | 245 | 2.0 | 3.0 | 0.00 | 0.00 | 0.00 | 98 | 982.3 |
| 20260903135046 | 70 | 246 | 2.0 | 3.0 | 0.00 | 0.00 | 0.00 | 98 | 982.2 |
| 20260903134546 | 70 | 169 | 2.0 | 4.0 | 0.00 | 0.00 | 0.00 | 99 | 982.2 |
| 20260903134046 | 69 | 280 | 3.0 | 4.0 | 0.00 | 0.00 | 0.00 | 99 | 982.3 |
| 20260903133024 | 69 | 294 | 4.0 | 6.0 | 0.00 | 0.00 | 0.00 | 99 | 982.4 |
| 20260903132524 | 69 | 309 | 7.0 | 11.0 | 0.00 | 0.00 | 0.00 | 99 | 982.5 |
| 20260903132024 | 69 | 294 | 2.0 | 3.0 | 0.00 | 0.00 | 0.00 | 99 | 982.5 |
| 20260903131524 | 69 | 309 | 4.0 | 7.0 | 0.00 | 0.00 | 0.00 | 99 | 982.5 |
| 20260903131023 | 69 | 261 | 1.0 | 2.0 | 0.00 | 0.00 | 0.00 | 99 | 982.6 |
| 20260903130523 | 68 | 328 | 2.0 | 3.0 | 0.00 | 0.00 | 0.00 | 99 | 982.6 |
| 20260903130023 | 68 | 307 | 3.0 | 4.0 | 0.00 | 0.00 | 0.00 | 99 | 982.6 |
| 20260903125523 | 68 | 327 | 2.0 | 3.0 | 0.00 | 0.00 | 0.00 | 99 | 982.7 |
| 20260903125022 | 68 | 7 | 2.0 | 2.0 | 0.00 | 0.00 | 0.00 | 99 | 982.6 |
| 20260903124522 | 68 | 323 | 3.0 | 3.0 | 0.00 | 0.00 | 0.00 | 99 | 982.6 |
| 20260903124022 | 68 | 340 | 2.0 | 2.0 | 0.00 | 0.00 | 0.00 | 99 | 982.6 |
| 20260903123522 | 68 | 317 | 2.0 | 3.0 | 0.00 | 0.00 | 0.00 | 99 | 982.7 |
| 20260903123021 | 68 | 347 | 3.0 | 3.0 | 0.00 | 0.00 | 0.00 | 99 | 982.6 |
| 20260903122520 | 68 | 47 | 2.0 | 2.0 | 0.00 | 0.00 | 0.00 | 99 | 982.5 |
| 20260903121458 | 68 | 334 | 2.0 | 3.0 | 0.00 | 0.00 | 0.00 | 99 | 982.6 |
| 20260903120958 | 68 | 136 | 3.0 | 5.0 | 0.00 | 0.00 | 0.00 | 99 | 982.5 |
| 20260903120458 | 68 | 24 | 2.0 | 2.0 | 0.00 | 0.00 | 0.00 | 99 | 982.5 |
| 20260903115958 | 68 | 346 | 2.0 | 2.0 | 0.00 | 0.00 | 0.00 | 99 | 982.5 |
| 20260903115457 | 68 | 317 | 2.0 | 3.0 | 0.00 | 0.00 | 0.00 | 99 | 982.4 |
| 20260903114957 | 68 | 260 | 2.0 | 3.0 | 0.00 | 0.00 | 0.00 | 99 | 982.4 |
| 20260903114457 | 68 | 348 | 2.0 | 2.0 | 0.00 | 0.00 | 0.00 | 99 | 982.4 |
| 20260903113957 | 68 | 353 | 3.0 | 3.0 | 0.00 | 0.00 | 0.00 | 99 | 982.3 |
| 20260903112936 | 68 | 337 | 2.0 | 2.0 | 0.00 | 0.00 | 0.00 | 99 | 982.3 |
| 20260903112435 | 68 | 336 | 2.0 | 2.0 | 0.00 | 0.00 | 0.00 | 99 | 982.2 |
| 20260903111935 | 68 | 337 | 2.0 | 2.0 | 0.00 | 0.00 | 0.00 | 99 | 982.2 |
| 20260903110914 | 68 | 340 | 2.0 | 2.0 | 0.00 | 0.00 | 0.00 | 99 | 982.3 |
| 20260903110413 | 67 | 337 | 2.0 | 2.0 | 0.00 | 0.00 | 0.00 | 99 | 982.1 |
| 20260903105913 | 67 | 354 | 3.0 | 3.0 | 0.00 | 0.00 | 0.00 | 99 | 982.0 |
| 20260903105413 | 67 | 345 | 2.0 | 2.0 | 0.00 | 0.00 | 0.00 | 99 | 982.0 |
| 20260903104912 | 67 | 352 | 2.0 | 3.0 | 0.00 | 0.00 | 0.00 | 98 | 982.0 |
| 20260903104411 | 67 | 309 | 2.0 | 3.0 | 0.00 | 0.00 | 0.00 | 98 | 982.0 |
| 20260903103350 | 67 | 333 | 2.0 | 2.0 | 0.00 | 0.00 | 0.00 | 98 | 982.0 |
| 20260903102850 | 67 | 342 | 2.0 | 3.0 | 0.00 | 0.00 | 0.00 | 98 | 982.0 |
| 20260903102350 | 67 | 339 | 2.0 | 2.0 | 0.00 | 0.00 | 0.00 | 98 | 982.0 |
| 20260903101328 | 67 | 352 | 2.0 | 3.0 | 0.00 | 0.00 | 0.00 | 98 | 982.0 |
| 20260903100828 | 67 | 339 | 2.0 | 2.0 | 0.00 | 0.00 | 0.00 | 98 | 982.0 |
| 20260903100328 | 67 | 342 | 2.0 | 2.0 | 0.00 | 0.00 | 0.00 | 98 | 981.9 |
| 20260903095828 | 67 | 335 | 2.0 | 2.0 | 0.00 | 0.00 | 0.00 | 98 | 981.8 |
| 20260903095327 | 67 | 151 | 2.0 | 4.0 | 0.00 | 0.00 | 0.00 | 98 | 981.8 |
| 20260903094827 | 67 | 332 | 1.0 | 3.0 | 0.00 | 0.00 | 0.00 | 98 | 981.7 |
| 20260903094327 | 67 | 343 | 2.0 | 2.0 | 0.00 | 0.00 | 0.00 | 98 | 981.7 |
| 20260903093827 | 67 | 331 | 1.0 | 1.0 | 0.00 | 0.00 | 0.00 | 98 | 981.5 |
| 20260903093327 | 67 | 340 | 2.0 | 3.0 | 0.00 | 0.00 | 0.00 | 98 | 981.5 |
| 20260903092826 | 67 | 101 | 2.0 | 3.0 | 0.00 | 0.00 | 0.00 | 98 | 981.4 |
| 20260903092326 | 67 | 30 | 2.0 | 3.0 | 0.00 | 0.00 | 0.00 | 98 | 981.3 |
| 20260903091826 | 66 | 60 | 2.0 | 3.0 | 0.00 | 0.00 | 0.00 | 98 | 981.3 |
| 20260903090804 | 66 | 336 | 1.0 | 2.0 | 0.00 | 0.00 | 0.00 | 98 | 981.2 |
| 20260903090304 | 67 | 135 | 2.0 | 3.0 | 0.00 | 0.00 | 0.00 | 98 | 981.2 |
| 20260903085804 | 67 | 336 | 1.0 | 2.0 | 0.00 | 0.00 | 0.00 | 98 | 981.2 |
| 20260903085306 | 67 | 333 | 1.0 | 2.0 | 0.00 | 0.00 | 0.00 | 98 | 981.2 |
| 20260903084803 | 67 | 337 | 1.0 | 2.0 | 0.00 | 0.00 | 0.00 | 98 | 981.2 |
| 20260903084303 | 67 | 344 | 2.0 | 2.0 | 0.00 | 0.00 | 0.00 | 98 | 981.2 |
| 20260903083803 | 67 | 1 | 2.0 | 2.0 | 0.00 | 0.00 | 0.00 | 98 | 981.1 |
| 20260903083302 | 67 | 344 | 2.0 | 2.0 | 0.00 | 0.00 | 0.00 | 98 | 981.0 |
| 20260903082802 | 67 | 14 | 2.0 | 2.0 | 0.00 | 0.00 | 0.00 | 98 | 981.0 |
| 20260903082305 | 67 | 347 | 2.0 | 2.0 | 0.00 | 0.00 | 0.00 | 98 | 980.9 |
| 20260903081240 | 67 | 337 | 1.0 | 1.0 | 0.00 | 0.00 | 0.00 | 98 | 981.1 |
| 20260903080740 | 67 | 339 | 2.0 | 2.0 | 0.00 | 0.00 | 0.00 | 98 | 981.2 |
| 20260903080240 | 67 | 341 | 2.0 | 2.0 | 0.00 | 0.00 | 0.00 | 98 | 981.2 |
| 20260903075740 | 67 | 347 | 2.0 | 2.0 | 0.00 | 0.00 | 0.00 | 98 | 981.1 |
| 20260903075239 | 68 | 155 | 3.0 | 4.0 | 0.00 | 0.00 | 0.00 | 98 | 981.1 |
| 20260903074739 | 68 | 44 | 2.0 | 2.0 | 0.00 | 0.00 | 0.00 | 98 | 981.1 |
| 20260903073718 | 68 | 338 | 1.0 | 1.0 | 0.00 | 0.00 | 0.00 | 98 | 981.1 |
| 20260903072135 | 68 | 330 | 1.0 | 1.0 | 0.00 | 0.00 | 0.00 | 98 | 980.8 |
| 20260903071635 | 68 | 340 | 2.0 | 2.0 | 0.00 | 0.00 | 0.00 | 98 | 980.7 |
| 20260903071135 | 68 | 8 | 2.0 | 3.0 | 0.00 | 0.00 | 0.00 | 98 | 980.7 |
| 20260903070634 | 68 | 128 | 2.0 | 2.0 | 0.00 | 0.00 | 0.00 | 98 | 980.8 |
| 20260903070134 | 68 | 153 | 2.0 | 3.0 | 0.00 | 0.00 | 0.00 | 98 | 980.8 |
| 20260903065634 | 68 | 344 | 2.0 | 2.0 | 0.00 | 0.00 | 0.00 | 98 | 980.9 |
| 20260903065134 | 68 | 337 | 1.0 | 2.0 | 0.00 | 0.00 | 0.00 | 98 | 981.0 |
| 20260903063030 | 68 | 142 | 2.0 | 3.0 | 0.00 | 0.00 | 0.00 | 98 | 981.2 |
| 20260903062530 | 69 | 143 | 3.0 | 3.0 | 0.00 | 0.00 | 0.00 | 98 | 981.3 |
| 20260903061508 | 69 | 342 | 2.0 | 2.0 | 0.00 | 0.00 | 0.00 | 98 | 981.5 |
| 20260903061008 | 69 | 331 | 1.0 | 1.0 | 0.00 | 0.00 | 0.00 | 98 | 981.5 |
| 20260903060508 | 69 | 137 | 3.0 | 3.0 | 0.00 | 0.00 | 0.00 | 98 | 981.4 |
| 20260903060008 | 69 | 341 | 2.0 | 2.0 | 0.00 | 0.00 | 0.00 | 98 | 981.5 |
| 20260903055507 | 69 | 332 | 1.0 | 2.0 | 0.00 | 0.00 | 0.00 | 98 | 981.5 |
| 20260903055007 | 69 | 339 | 2.0 | 3.0 | 0.00 | 0.00 | 0.00 | 98 | 981.7 |
| 20260903053425 | 69 | 333 | 2.0 | 2.0 | 0.00 | 0.00 | 0.00 | 98 | 981.6 |
| 20260903052924 | 69 | 133 | 2.0 | 3.0 | 0.00 | 0.00 | 0.00 | 97 | 981.5 |
| 20260903052424 | 69 | 147 | 3.0 | 3.0 | 0.00 | 0.00 | 0.00 | 98 | 981.5 |
| 20260903051924 | 69 | 134 | 2.0 | 3.0 | 0.00 | 0.00 | 0.00 | 97 | 981.4 |
| 20260903051424 | 69 | 180 | 2.0 | 3.0 | 0.00 | 0.00 | 0.00 | 97 | 981.5 |
| 20260903050924 | 69 | 101 | 1.0 | 2.0 | 0.00 | 0.00 | 0.00 | 97 | 981.4 |
| 20260903050423 | 69 | 345 | 1.0 | 3.0 | 0.00 | 0.00 | 0.00 | 97 | 981.4 |
| 20260903045402 | 69 | 134 | 2.0 | 4.0 | 0.00 | 0.00 | 0.00 | 97 | 981.3 |
| 20260903044902 | 69 | 124 | 2.0 | 3.0 | 0.00 | 0.00 | 0.00 | 97 | 981.5 |
| 20260903044402 | 69 | 0 | 0.0 | 0.0 | 0.00 | 0.00 | 0.00 | 97 | 981.4 |
| 20260903043340 | 69 | 133 | 1.0 | 3.0 | 0.00 | 0.00 | 0.00 | 97 | 980.9 |
| 20260903042840 | 69 | 333 | 1.0 | 1.0 | 0.00 | 0.00 | 0.00 | 97 | 980.8 |
| 20260903041818 | 69 | 328 | 1.0 | 1.0 | 0.00 | 0.00 | 0.00 | 97 | 980.6 |
| 20260903041317 | 69 | 341 | 1.0 | 2.0 | 0.00 | 0.00 | 0.00 | 97 | 980.4 |
| 20260903040256 | 69 | 83 | 2.0 | 2.0 | 0.00 | 0.00 | 0.00 | 97 | 980.6 |
| 20260903035756 | 69 | 127 | 2.0 | 4.0 | 0.00 | 0.00 | 0.00 | 97 | 980.7 |
| 20260903035255 | 69 | 313 | 2.0 | 3.0 | 0.00 | 0.00 | 0.00 | 97 | 980.3 |
| 20260903034755 | 69 | 95 | 2.0 | 2.0 | 0.00 | 0.00 | 0.00 | 97 | 980.2 |
| 20260903034255 | 69 | 291 | 1.0 | 2.0 | 0.00 | 0.00 | 0.00 | 97 | 980.2 |
| 20260903033755 | 69 | 358 | 2.0 | 2.0 | 0.00 | 0.00 | 0.00 | 97 | 980.0 |
| 20260903033254 | 69 | 340 | 2.0 | 3.0 | 0.00 | 0.00 | 0.00 | 97 | 980.0 |
| 20260903032754 | 69 | 101 | 1.0 | 2.0 | 0.00 | 0.00 | 0.00 | 97 | 980.0 |
| 20260903032254 | 69 | 331 | 1.0 | 1.0 | 0.00 | 0.00 | 0.00 | 97 | 980.1 |
| 20260903031754 | 69 | 339 | 1.0 | 1.0 | 0.00 | 0.00 | 0.00 | 97 | 980.2 |
| 20260903031254 | 69 | 140 | 3.0 | 4.0 | 0.00 | 0.00 | 0.00 | 96 | 980.3 |
| 20260903030753 | 69 | 124 | 1.0 | 2.0 | 0.00 | 0.00 | 0.00 | 96 | 980.7 |
| 20260903030253 | 69 | 319 | 1.0 | 2.0 | 0.00 | 0.00 | 0.00 | 96 | 980.6 |
| 20260903025753 | 69 | 326 | 1.0 | 1.0 | 0.00 | 0.00 | 0.00 | 96 | 980.7 |
| 20260903025253 | 69 | 324 | 1.0 | 3.0 | 0.00 | 0.00 | 0.00 | 96 | 980.6 |
| 20260903024752 | 69 | 329 | 1.0 | 1.0 | 0.00 | 0.00 | 0.00 | 96 | 980.6 |
| 20260903024252 | 69 | 318 | 2.0 | 2.0 | 0.00 | 0.00 | 0.00 | 95 | 980.6 |
| 20260903023752 | 69 | 146 | 3.0 | 5.0 | 0.00 | 0.00 | 0.00 | 95 | 981.1 |
| 20260903023252 | 69 | 301 | 2.0 | 4.0 | 0.00 | 0.00 | 0.00 | 95 | 981.1 |
| 20260903022230 | 69 | 277 | 2.0 | 3.0 | 0.00 | 0.00 | 0.00 | 95 | 980.8 |
| 20260903021730 | 69 | 335 | 1.0 | 2.0 | 0.00 | 0.00 | 0.00 | 95 | 981.1 |
| 20260903021230 | 69 | 81 | 3.0 | 6.0 | 0.00 | 0.00 | 0.00 | 96 | 981.2 |
| 20260903020729 | 69 | 55 | 2.0 | 3.0 | 0.00 | 0.00 | 0.00 | 96 | 982.0 |
| 20260903020228 | 69 | 14 | 3.0 | 5.0 | 0.00 | 0.00 | 0.00 | 97 | 982.2 |
| 20260903015728 | 69 | 340 | 3.0 | 4.0 | 0.00 | 0.00 | 0.00 | 97 | 981.9 |
| 20260903014706 | 69 | 0 | 2.0 | 3.0 | 0.00 | 0.00 | 0.00 | 97 | 981.2 |
| 20260903014206 | 69 | 147 | 5.0 | 6.0 | 0.00 | 0.00 | 0.00 | 97 | 981.2 |
| 20260903013145 | 69 | 61 | 2.0 | 3.0 | 0.00 | 0.00 | 0.00 | 97 | 981.4 |
| 20260903012645 | 69 | 326 | 2.0 | 3.0 | 0.00 | 0.00 | 0.00 | 97 | 981.4 |
| 20260903012144 | 69 | 334 | 2.0 | 2.0 | 0.00 | 0.00 | 0.00 | 97 | 981.6 |
| 20260903011644 | 69 | 335 | 2.0 | 2.0 | 0.00 | 0.00 | 0.00 | 97 | 981.7 |
| 20260903010101 | 69 | 135 | 3.0 | 5.0 | 0.00 | 0.00 | 0.00 | 96 | 981.0 |
| 20260903005601 | 69 | 139 | 4.0 | 6.0 | 0.00 | 0.00 | 0.00 | 96 | 981.3 |
| 20260903005100 | 69 | 317 | 2.0 | 3.0 | 0.00 | 0.00 | 0.00 | 96 | 981.3 |
| 20260903004600 | 69 | 329 | 2.0 | 2.0 | 0.00 | 0.00 | 0.00 | 96 | 981.1 |
| 20260903004059 | 69 | 150 | 2.0 | 4.0 | 0.00 | 0.00 | 0.00 | 96 | 981.2 |
| 20260903003558 | 69 | 160 | 3.0 | 5.0 | 0.00 | 0.00 | 0.00 | 96 | 981.2 |
| 20260903003058 | 69 | 330 | 1.0 | 1.0 | 0.00 | 0.00 | 0.00 | 96 | 981.1 |
| 20260903002037 | 69 | 152 | 6.0 | 7.0 | 0.00 | 0.00 | 0.00 | 96 | 981.1 |
| 20260903000454 | 69 | 252 | 3.0 | 4.0 | 0.00 | 0.00 | 0.00 | 96 | 981.4 |
| 20260902235953 | 69 | 323 | 1.0 | 2.0 | 0.00 | 0.00 | 0.00 | 96 | 980.4 |
| 20260902235453 | 68 | 324 | 1.0 | 2.0 | 0.00 | 0.00 | 0.00 | 96 | 980.5 |
| 20260902234432 | 68 | 346 | 2.0 | 5.0 | 0.00 | 0.00 | 0.00 | 96 | 980.6 |
| 20260902233931 | 69 | 15 | 3.0 | 7.0 | 0.00 | 0.00 | 0.00 | 96 | 980.9 |
| 20260902233431 | 69 | 152 | 4.0 | 6.0 | 0.00 | 0.00 | 0.00 | 96 | 981.5 |
| 20260902232930 | 69 | 328 | 2.0 | 4.0 | 0.00 | 0.00 | 0.00 | 96 | 981.6 |
| 20260902232430 | 69 | 159 | 4.0 | 7.0 | 0.00 | 0.00 | 0.00 | 96 | 981.5 |
| 20260902231930 | 69 | 206 | 4.0 | 6.0 | 0.00 | 0.00 | 0.00 | 96 | 981.2 |
| 20260902231429 | 69 | 152 | 5.0 | 6.0 | 0.00 | 0.00 | 0.00 | 96 | 981.0 |
| 20260902230408 | 68 | 119 | 2.0 | 4.0 | 0.00 | 0.00 | 0.00 | 95 | 980.5 |
| 20260902225908 | 68 | 10 | 2.0 | 3.0 | 0.00 | 0.00 | 0.00 | 95 | 980.6 |
| 20260902225407 | 69 | 99 | 3.0 | 5.0 | 0.00 | 0.00 | 0.00 | 96 | 980.9 |
| 20260902224907 | 69 | 154 | 4.0 | 6.0 | 0.00 | 0.00 | 0.00 | 95 | 981.0 |
| 20260902224407 | 69 | 167 | 4.0 | 6.0 | 0.00 | 0.00 | 0.00 | 95 | 981.0 |
| 20260902223346 | 68 | 161 | 5.0 | 6.0 | 0.00 | 0.00 | 0.00 | 95 | 980.1 |
| 20260902222845 | 68 | 147 | 2.0 | 4.0 | 0.00 | 0.00 | 0.00 | 95 | 980.2 |
| 20260902222344 | 68 | 18 | 2.0 | 3.0 | 0.00 | 0.00 | 0.00 | 95 | 980.4 |
| 20260902221844 | 68 | 122 | 4.0 | 6.0 | 0.00 | 0.00 | 0.00 | 95 | 980.9 |
| 20260902215739 | 69 | 11 | 6.0 | 9.0 | 0.00 | 0.00 | 0.00 | 94 | 981.7 |
| 20260902215239 | 70 | 60 | 6.0 | 10.0 | 0.00 | 0.00 | 0.00 | 92 | 982.1 |
| 20260902214738 | 71 | 21 | 5.0 | 9.0 | 0.00 | 0.00 | 0.00 | 90 | 982.0 |
| 20260902214238 | 73 | 37 | 8.0 | 12.0 | 0.00 | 0.00 | 0.00 | 87 | 981.0 |
| 20260902213738 | 75 | 344 | 6.0 | 12.0 | 0.00 | 0.00 | 0.00 | 86 | 981.4 |
| 20260902213237 | 76 | 352 | 3.0 | 5.0 | 0.00 | 0.00 | 0.00 | 94 | 980.3 |
| 20260902212737 | 76 | 193 | 1.0 | 2.0 | 0.00 | 0.00 | 0.00 | 94 | 979.6 |
| 20260902212236 | 76 | 0 | 0.0 | 0.0 | 0.00 | 0.00 | 0.00 | 94 | 979.2 |
| 20260902211736 | 77 | 169 | 1.0 | 2.0 | 0.00 | 0.00 | 0.00 | 95 | 979.3 |
| 20260902210714 | 77 | 186 | 2.0 | 4.0 | 0.00 | 0.00 | 0.00 | 94 | 979.7 |
| 20260902210214 | 76 | 277 | 2.0 | 3.0 | 0.00 | 0.00 | 0.00 | 93 | 979.9 |
| 20260902205714 | 75 | 315 | 3.0 | 6.0 | 0.00 | 0.00 | 0.00 | 92 | 980.1 |
| 20260902205213 | 74 | 52 | 2.0 | 3.0 | 0.00 | 0.00 | 0.00 | 95 | 979.9 |
| 20260902204712 | 74 | 294 | 3.0 | 5.0 | 0.00 | 0.00 | 0.00 | 93 | 980.1 |
| 20260902204212 | 75 | 269 | 5.0 | 7.0 | 0.00 | 0.00 | 0.00 | 91 | 980.3 |
| 20260902203713 | 77 | 201 | 3.0 | 4.0 | 0.00 | 0.00 | 0.00 | 87 | 980.9 |
| 20260902203212 | 81 | 340 | 8.0 | 13.0 | 0.00 | 0.00 | 0.00 | 92 | 980.6 |
| 20260902201629 | 83 | 195 | 2.0 | 4.0 | 0.00 | 0.00 | 0.00 | 92 | 980.2 |
| 20260902201129 | 83 | 228 | 2.0 | 3.0 | 0.00 | 0.00 | 0.00 | 91 | 980.4 |
| 20260902200629 | 83 | 224 | 2.0 | 4.0 | 0.00 | 0.00 | 0.00 | 89 | 980.3 |
| 20260902200128 | 83 | 217 | 2.0 | 3.0 | 0.00 | 0.00 | 0.00 | 88 | 980.3 |
| 20260902195628 | 83 | 208 | 1.0 | 2.0 | 0.00 | 0.00 | 0.00 | 89 | 980.4 |
| 20260902195128 | 83 | 235 | 3.0 | 5.0 | 0.00 | 0.00 | 0.00 | 87 | 980.5 |
| 20260902194106 | 82 | 194 | 2.0 | 3.0 | 0.00 | 0.00 | 0.00 | 85 | 980.7 |
| 20260902193606 | 82 | 195 | 3.0 | 4.0 | 0.00 | 0.00 | 0.00 | 84 | 980.7 |
| 20260902193106 | 81 | 150 | 3.0 | 5.0 | 0.00 | 0.00 | 0.00 | 84 | 980.8 |
| 20260902192606 | 80 | 164 | 2.0 | 3.0 | 0.00 | 0.00 | 0.00 | 85 | 980.8 |
| 20260902192106 | 79 | 182 | 2.0 | 3.0 | 0.00 | 0.00 | 0.00 | 89 | 980.8 |